Weather reports worldwide

Advertisment
Leeming, United Kingdom (3257): temperature & dewpoint: 24.09.2020 23:00:00 - 30.09.2020 23:00:00 (BST)Leeming, United Kingdom (3257): temperature -20cm & temperature -100cm: 24.09.2020 23:00:00 - 30.09.2020 23:00:00 (BST)Leeming, United Kingdom (3257): wind speed & gusts: 24.09.2020 23:00:00 - 30.09.2020 23:00:00 (BST)Leeming, United Kingdom (3257): wind direction: 24.09.2020 23:00:00 - 30.09.2020 23:00:00 (BST)Leeming, United Kingdom (3257): reduced air pressure: 24.09.2020 23:00:00 - 30.09.2020 23:00:00 (BST)Leeming, United Kingdom (3257): visibility: 24.09.2020 23:00:00 - 30.09.2020 23:00:00 (BST)Leeming, United Kingdom (3257): sunshine duration: 24.09.2020 23:00:00 - 30.09.2020 23:00:00 (BST)Leeming, United Kingdom (3257): precipitation: 24.09.2020 23:00:00 - 30.09.2020 23:00:00 (BST)
Date & Time tt [°C] td [°C] tt -20cm [°C] tt -100cm [°C] ff [km/h] ff [kn] fx [km/h] fx [kn] dd ppp [hPa] vv [km] sd [min] rr [mm]
30.09.2020 23:00:00 - - - - - - - - - - - - -
30.09.2020 22:00:00 12,9 12,2 - - 11 6 - - S 996,9 6 0 -
30.09.2020 21:00:00 12,9 12,6 - - 15 8 - - SE 997,1 6 0 0,4
30.09.2020 20:00:00 12,7 12,4 - - 11 6 - - SE 997,9 4,2 0 1,4
30.09.2020 19:00:00 12,4 12,0 - - 13 7 - - SE 998,6 4,1 0 1,2
30.09.2020 18:00:00 12,4 11,6 - - 18 10 - - SE 999,1 7 0 1,2
30.09.2020 17:00:00 12,6 11,4 - - 21 11 - - SSE 999,6 10 0 0,8
30.09.2020 16:00:00 12,6 11,2 - - 18 10 - - SE 1000,3 10 0 0,2
30.09.2020 15:00:00 12,9 10,8 - - 29 16 52 28 SSE 1000,7 25 0 0,2
30.09.2020 14:00:00 12,4 10,3 - - 34 18 46 25 SSE 1001,0 8 0 0,0
30.09.2020 13:00:00 12,5 10,4 - - 26 14 - - SSE 1002,0 10 0 0,0
30.09.2020 12:00:00 11,2 9,8 - - 28 15 - - SSE 1002,8 10 0 0,2
30.09.2020 11:00:00 10,5 8,7 - - 26 14 - - SE 1003,4 10 0 0,0
30.09.2020 10:00:00 9,8 8,4 - - 18 10 - - SE 1004,4 10 0 0,2
30.09.2020 09:00:00 9,5 8,0 - - 18 10 - - SE 1005,4 10 0 0,0
30.09.2020 08:00:00 8,7 7,3 - - 21 11 - - SE 1006,1 10 0 0,0
30.09.2020 07:00:00 8,2 6,7 - - 15 8 - - SSE 1006,6 10 0 0,0
30.09.2020 06:00:00 7,4 6,4 - - 9 5 - - SSE 1007,1 11 0 -
30.09.2020 05:00:00 7,4 6,7 - - 11 6 - - SE 1007,7 10 0 0,0
30.09.2020 04:00:00 7,6 6,6 - - 9 5 - - S 1008,8 9 0 -
30.09.2020 03:00:00 9,3 8,5 - - 15 8 - - SSE 1009,5 10 0 0,0
30.09.2020 02:00:00 9,8 9,2 - - 11 6 - - SSE 1010,4 7 0 0,0
30.09.2020 01:00:00 10,4 9,4 - - 9 5 - - SSE 1011,2 10 - 0,0
30.09.2020 00:00:00 10,3 8,9 - - 9 5 - - SSE 1011,9 16 0 0,0
29.09.2020 23:00:00 10,4 8,0 - - 11 6 - - SSE 1012,7 20 0 0,0
29.09.2020 22:00:00 11,0 7,4 - - 8 4 - - SSE 1013,2 22 0 0,0
29.09.2020 21:00:00 9,9 6,3 - - 2 1 - - S 1013,8 24 0 -
29.09.2020 20:00:00 10,7 6,2 - - 5 3 - - SSW 1014,1 26 0 0,0
29.09.2020 19:00:00 11,3 4,9 - - 5 3 - - WSW 1014,3 10 0 0,0
29.09.2020 18:00:00 14,1 5,0 - - 8 4 - - W 1014,2 10 60 0,0
29.09.2020 17:00:00 15,7 4,4 - - 15 8 - - W 1014,3 10 60 0,0
29.09.2020 16:00:00 16,9 5,9 - - 8 4 - - SSW 1014,6 10 54 0,0
29.09.2020 15:00:00 16,8 6,0 - - 9 5 - - SSW 1014,7 10 54 -
29.09.2020 14:00:00 16,6 6,2 - - 9 5 - - SSW 1015,2 10 60 0,0
29.09.2020 13:00:00 15,0 6,0 - - 4 2 - - W 1015,6 10 60 0,0
29.09.2020 12:00:00 14,4 7,6 - - 4 2 - - NE 1016,1 10 60 0,0
29.09.2020 11:00:00 14,3 9,3 - - 2 1 - - WNW 1016,4 10 60 0,0
29.09.2020 10:00:00 11,2 8,2 12,7 14,0 5 3 - - WNW 1016,5 10 60 0,0
29.09.2020 09:00:00 9,3 7,4 - - 8 4 - - WNW 1016,3 10 60 0,0
29.09.2020 08:00:00 6,0 5,1 - - 9 5 - - W 1016,1 10 18 0,0
29.09.2020 07:00:00 6,8 5,3 - - 2 1 - - NW 1015,8 21 0 0,0
29.09.2020 06:00:00 7,9 6,5 - - 8 4 - - WNW 1015,3 22 0 0,0
29.09.2020 05:00:00 8,8 7,6 - - 8 4 - - NNW 1014,9 23 0 0,0
29.09.2020 04:00:00 8,6 7,8 - - 0 0 - - N 1014,8 11 0 0,0
29.09.2020 03:00:00 8,6 7,2 - - 5 3 - - NNW 1014,7 20 0 0,0
29.09.2020 02:00:00 9,7 8,4 - - 9 5 - - WNW 1014,3 10 0 0,0
29.09.2020 01:00:00 11,2 10,1 - - 11 6 - - WNW 1014,1 22 - 0,0
29.09.2020 00:00:00 11,4 11,0 - - 8 4 - - NNW 1013,8 9 0 0,0
28.09.2020 23:00:00 11,8 11,5 - - 5 3 - - N 1013,6 3,2 0 0,0
28.09.2020 22:00:00 12,0 11,4 - - 5 3 - - WSW 1013,2 10 0 0,0
28.09.2020 21:00:00 12,7 12,1 - - 4 2 - - SSW 1012,8 10 0 0,0
28.09.2020 20:00:00 12,6 11,9 - - 2 1 - - NW 1012,5 8 0 0,6
28.09.2020 19:00:00 13,3 11,3 - - 9 5 - - SSW 1012,0 5 0 0,0
28.09.2020 18:00:00 14,7 10,0 - - 8 4 - - ESE 1011,3 23 0 -
28.09.2020 17:00:00 14,7 9,6 - - 11 6 - - S 1011,0 10 6 0,0
28.09.2020 16:00:00 16,0 9,2 - - 9 5 - - SE 1010,9 10 30 0,0
28.09.2020 15:00:00 13,8 7,5 - - 11 6 - - SSE 1010,9 10 0 0,0
28.09.2020 14:00:00 12,9 6,4 - - 13 7 - - SSE 1011,5 10 6 0,0
28.09.2020 13:00:00 12,0 7,1 - - 11 6 - - SSE 1011,7 10 0 0,0
28.09.2020 12:00:00 10,6 6,7 - - 8 4 - - S 1012,1 10 0 0,0
28.09.2020 11:00:00 9,0 6,4 - - 8 4 - - SE 1012,2 10 6 0,0
28.09.2020 10:00:00 6,4 5,0 12,4 14,2 5 3 - - ESE 1012,5 10 0 0,0
28.09.2020 09:00:00 4,5 4,1 - - 4 2 - - SSE 1012,7 10 12 0,0
28.09.2020 08:00:00 2,4 2,2 - - 4 2 - - E 1012,6 35 6 0,0
28.09.2020 07:00:00 1,7 1,5 - - 4 2 - - SSW 1012,7 10 0 0,0
28.09.2020 06:00:00 2,5 2,2 - - 4 2 - - E 1012,6 15 0 0,0
28.09.2020 05:00:00 1,8 1,2 - - 2 1 - - WNW 1013,1 8 0 0,0
28.09.2020 04:00:00 3,5 3,1 - - 2 1 - - SE 1013,8 18 0 -
28.09.2020 03:00:00 3,9 2,9 - - 2 1 - - NW 1014,2 19 0 0,0
28.09.2020 02:00:00 4,6 3,8 - - 4 2 - - W 1014,7 19 0 0,0
28.09.2020 01:00:00 5,0 4,6 - - 4 2 - - W 1014,8 18 - 0,0
28.09.2020 00:00:00 5,0 4,5 - - 4 2 - - WSW 1015,3 15 0 0,0
27.09.2020 23:00:00 4,6 3,9 - - 5 3 - - W 1015,5 13 0 0,0
27.09.2020 22:00:00 4,5 3,7 - - 8 4 - - W 1015,6 11 0 0,0
27.09.2020 21:00:00 5,8 4,8 - - 5 3 - - W 1015,5 15 0 0,0
27.09.2020 20:00:00 7,4 5,7 - - 5 3 - - NNW 1015,1 20 0 0,0
27.09.2020 19:00:00 8,8 5,6 - - 8 4 - - NNW 1015,3 22 18 0,0
27.09.2020 18:00:00 10,8 6,0 - - 13 7 - - NNE 1015,1 25 54 -
27.09.2020 17:00:00 11,7 6,2 - - 18 10 - - N 1015,2 23 48 -
27.09.2020 16:00:00 10,9 6,4 - - 16 9 - - NNW 1015,3 23 0 0,0
27.09.2020 15:00:00 11,2 6,5 - - 18 10 - - NNW 1015,5 10 0 0,0
27.09.2020 14:00:00 10,8 6,3 - - 21 11 - - NNW 1015,9 21 0 0,0
27.09.2020 13:00:00 10,8 6,6 - - 16 9 - - NNW 1016,0 21 0 0,0
27.09.2020 12:00:00 10,5 6,1 - - 22 12 - - NW 1015,9 10 0 0,0
27.09.2020 11:00:00 10,0 5,4 - - 22 12 - - NNW 1016,1 22 0 0,0
27.09.2020 10:00:00 9,9 5,5 - - 24 13 - - NW 1016,0 10 0 -
27.09.2020 09:00:00 9,6 5,1 - - 22 12 - - NNW 1016,1 10 0 0,0
27.09.2020 08:00:00 9,2 4,9 - - 18 10 - - NNW 1016,0 20 0 0,0
27.09.2020 07:00:00 9,3 4,6 - - 24 13 - - NNW 1015,6 21 0 0,0
27.09.2020 06:00:00 9,3 4,6 - - 24 13 - - NNW 1015,7 20 0 -
27.09.2020 05:00:00 9,4 4,7 - - 26 14 - - NNW 1015,8 20 0 0,0
27.09.2020 04:00:00 9,4 4,8 - - 26 14 - - NNW 1016,1 19 0 0,0
27.09.2020 03:00:00 9,2 4,6 - - 22 12 - - NNW 1016,3 19 0 0,0
27.09.2020 02:00:00 9,4 4,9 - - 24 13 - - NNW 1016,6 20 0 0,0
27.09.2020 01:00:00 9,8 4,7 - - 22 12 - - NNW 1016,6 18 - 0,0
27.09.2020 00:00:00 10,0 4,8 - - 24 13 - - NNW 1016,4 19 0 0,0
26.09.2020 23:00:00 9,9 5,3 - - 22 12 - - NNW 1016,4 17 0 0,0
26.09.2020 22:00:00 10,2 5,0 - - 26 14 - - NNW 1016,4 19 0 -
26.09.2020 21:00:00 10,4 4,3 - - 31 17 50 27 NNW 1016,3 10 0 0,0
26.09.2020 20:00:00 10,4 5,1 - - 24 13 61 33 NNW 1016,1 10 0 0,0
26.09.2020 19:00:00 10,7 5,0 - - 29 16 54 29 NNW 1015,6 10 0 0,0
26.09.2020 18:00:00 11,1 5,1 - - 34 18 52 28 N 1015,8 20 0 0,0
26.09.2020 17:00:00 11,0 6,5 - - 35 19 55 30 N 1015,4 18 0 0,0
26.09.2020 16:00:00 12,3 5,6 - - 34 18 57 31 N 1014,4 21 0 0,0
26.09.2020 15:00:00 12,1 6,0 - - 28 15 54 29 N 1013,9 17 0 0,0
26.09.2020 14:00:00 11,4 6,0 - - 34 18 59 32 NNW 1013,6 19 0 0,0
26.09.2020 13:00:00 11,5 5,7 - - 31 17 52 28 NNW 1013,3 22 6 0,0
26.09.2020 12:00:00 11,3 6,0 - - 31 17 50 27 NNW 1012,9 27 6 0,0
26.09.2020 11:00:00 10,0 4,4 - - 37 20 55 30 NNW 1012,8 30 18 0,0
26.09.2020 10:00:00 9,2 3,4 - - 31 17 48 26 NW 1012,6 35 42 0,0
26.09.2020 09:00:00 8,2 2,7 - - 29 16 - - NW 1012,2 35 30 0,0
26.09.2020 08:00:00 6,6 1,8 - - 24 13 - - NW 1012,0 40 0 0,0
26.09.2020 07:00:00 6,1 1,4 - - 22 12 - - NW 1011,6 40 0 0,0
26.09.2020 06:00:00 5,7 1,2 - - 22 12 - - NW 1011,5 40 0 0,0
26.09.2020 05:00:00 5,9 0,8 - - 24 13 - - NW 1011,2 35 0 0,0
26.09.2020 04:00:00 6,2 0,6 - - 26 14 - - NW 1011,0 30 0 0,0
26.09.2020 03:00:00 6,0 0,7 - - 24 13 - - NW 1011,2 30 0 0,0
26.09.2020 02:00:00 6,6 1,3 - - 26 14 - - WNW 1011,0 30 0 0,0
26.09.2020 01:00:00 7,3 1,8 - - 28 15 - - WNW 1011,1 30 - 0,0
26.09.2020 00:00:00 7,5 2,2 - - 22 12 - - WNW 1010,9 29 0 0,0
25.09.2020 23:00:00 8,3 2,1 - - 29 16 - - NW 1010,9 26 0 0,0
25.09.2020 22:00:00 8,5 1,8 - - 26 14 48 26 NNW 1010,8 27 0 0,0
25.09.2020 21:00:00 9,7 2,6 - - 29 16 55 30 NNW 1010,4 26 0 -
25.09.2020 20:00:00 10,4 2,6 - - 31 17 57 31 NNW 1009,5 10 0 0,0
25.09.2020 19:00:00 11,0 4,2 - - 28 15 52 28 NNW 1008,4 35 6 0,0
25.09.2020 18:00:00 10,8 6,5 - - 29 16 68 37 NNW 1007,7 35 18 -
25.09.2020 17:00:00 11,7 6,2 - - 37 20 63 34 NNW 1007,0 35 18 0,0
25.09.2020 16:00:00 12,9 2,8 - - 39 21 65 35 NNW 1006,1 10 48 0,0
25.09.2020 15:00:00 13,7 4,2 - - 42 23 70 38 NNW 1005,4 10 60 0,0
25.09.2020 14:00:00 13,3 3,7 - - 44 24 65 35 NNW 1005,0 10 60 0,0
25.09.2020 13:00:00 12,5 5,1 - - 39 21 74 40 NNW 1004,3 40 24 0,0
25.09.2020 12:00:00 11,5 5,3 - - 42 23 72 39 NNW 1003,9 10 6 0,0
25.09.2020 11:00:00 10,8 5,7 - - 39 21 57 31 NNW 1003,3 10 30 0,0
25.09.2020 10:00:00 10,0 5,9 13,9 14,7 37 20 54 29 NW 1002,6 10 60 0,0
25.09.2020 09:00:00 9,0 5,2 - - 34 18 55 30 NW 1002,1 10 30 0,0
25.09.2020 08:00:00 8,1 5,2 - - 34 18 50 27 NW 1001,5 10 0 0,0
25.09.2020 07:00:00 7,6 4,9 - - 34 18 52 28 NW 1000,8 30 0 0,0
25.09.2020 06:00:00 7,0 4,2 - - 29 16 48 26 NW 1000,3 29 0 0,0
25.09.2020 05:00:00 7,4 4,5 - - 31 17 - - NW 999,6 29 0 0,0
25.09.2020 04:00:00 7,2 4,9 - - 26 14 - - NNW 999,3 10 0 0,0
25.09.2020 03:00:00 7,1 5,3 - - 18 10 - - NNW 999,0 29 0 0,2
25.09.2020 02:00:00 7,6 5,9 - - 24 13 - - NNW 998,5 27 0 0,6
25.09.2020 01:00:00 7,7 6,6 - - 22 12 - - NNW 998,1 17 - 1,2
25.09.2020 00:00:00 7,9 7,1 - - 18 10 - - NNW 997,8 13 0 0,2
24.09.2020 23:00:00 8,3 7,0 - - 15 8 - - NNW 997,3 30 0 0,6

tt = temperature
td = dewpoint
tt -20cm = temperature -20cm
tt -100cm = temperature -100cm
ff = wind speed
fx = gusts
dd = wind direction
ppp = reduced air pressure
vv = visibility
sd = sunshine duration
rr = precipitation

Next stations